Location: ?????????
(41.2393°N, 22.9479°E)
Time: 23:03:15
(UTC+00:00)

CZ-2D R/B - Pass Details

Date: 17 November 2025
Orbit: 525 x 597 km, 98.0° (Epoch: 13 December)

Event Time Altitude Azimuth Distance (km) Brightness Sun altitude
Rises 16:08:03 0° 144° (SE) 2,777 6.7 -11.5°
Reaches altitude 10° 16:10:19 10° 135° (SE) 1,894 5.8 -12.0°
Maximum altitude 16:14:02 34° 70° (ENE) 974 4.0 -12.6°
Drops below altitude 10° 16:17:51 10° 5° (N) 1,936 5.9 -13.3°
Sets 16:20:10 0° 357° (N) 2,849 6.9 -13.8°
